Showing default

HJS-6C, 63430

Orbit data source: Space-Track

HJS-6C, 63430 is a payload satellite owned by Zhongguo Xingwang (CN) in LEO that was launched on Tue, 01 Apr 2025 UTC via a CHANG ZHENG 2D launch vehicle from the Jiuquan Satellite Launch Center, China (JSC). Payload-class satellites include a variety of spacecraft equipped with specific instruments for various scientific and technological missions. These include communications satellites like Starlink; space stations such as the ISS; scientific satellites like the Hubble; Earth observation satellites from companies like Planet Labs, Umbra, and HawkEye 360; GPS; miniature CubeSats for education and research; and military/defense satellites.

Loading next visibility...
Identifier
63430, 2025-067C
Orbit
LEO
Country
Flag of CNCN / PRC
Related business
Manufacturer
Changguang WJ
Mission
Operational Civil Communications
Bus & Motor
Unknown
Mass
~300 kg wet, ~300 kg dry
Launch date (UTC)
2025-04-01 (1 year ago)
Launch vehicle
CHANG ZHENG 2D
Launch site
Jiuquan Satellite Launch Center, China (JSC)
Object type
Payload
Rocket body
Debris
Shape & HBR
Box + 2 Pan, 1.1 m
Radar Cross Section
2.320 m², Large (>1 m²)

Expand to show TLE details & history
Last TLE update: 7 hours ago

TLE from 7 hours ago
0 HJS-6C
1 63430U 25067C   26124.14590455  .00006133  00000-0  22370-3 0  9994
2 63430  54.9918 221.7226 0005921 199.8922 160.1872 15.29502559 61211
Epoch: 2026-05-04T03:30Z
TLE epoch observation values (Epoch: 2026-05-04T03:30:06.153Z)
Latitude
Longitude
-52.84233°
Altitude
482.212 km
Speed
7.623 km/s
True Right ascension
14h 46m 53s
True Declination
0° 00' 00"
Sunlit
Object was in full shadow at epoch
Visualization orbit readout
Latitude
Unknown
Longitude
Unknown
Altitude
Unknown
Speed
Unknown
Apparent Right ascension
Unknown
Apparent Declination
Unknown
Sunlit
N/A
Visualization observer readout
Local Sidereal Time
18:46:06
Azimuth
Unknown
Elevation
Unknown
Doppler factor
Unknown
Orbital elements
Apogee altitude
481.321 km
Perigee altitude
473.203 km
Semi-major axis
6,855.399 km
Eccentricity
0.00059
Inclination
54.9918°
RAAN
221.7226°
Arg. of periapsis
199.8922°
True anomaly
160.21018°
Mean anomaly
160.1872°
Eccentric anomaly
160.19869°
Mean motion
3.82379 °/min
Orbital period
94.15 mins
BSTAR
0.0002237
Loading maneuver chart data...
Computing Atmospheric mass density...
Loading historical data...
Loading historical data...
Loading historical data...
Loading historical data...
Loading historical data...
Loading historical data...
Loading historical data...
Other satellites on launch #67 in the year 2025 (2025-04-01 UTC)

Documentation

Showing up to 5 results
|